Torna al catalogo

STARLINK-35538

AttivoComunicazioniVLEO
NORAD 66475·PAYLOAD·🇺🇸 United States

Lanciato Nov 15, 2025 da Cape Canaveral Space Force Station

Loading…

Prossimi Passaggi (prossime 24 ore)

TLE

AggiornatoSource: CelesTrak SupGP

Epoca: Sep 15, 2026, 03:17 UTC

1 66475C 25262V   26258.13729167  .00023384  00000+0  84690-3 0  2581
2 66475  43.0022 306.5540 0001306 263.2303 204.4004 15.27569802    13

Traccia STARLINK-35538 in tempo reale con AllMySat

Download on the App Store